RH
42 64 71 79 30 30 16 20 29 31 32 37 41 30 26 22 22 30 79 78 56 98 82 95 91 82 84 82 77 78 80 82 82 84 81 72 57 20 36 63 75 79 54 79 76 84 85 77 79
58 69 85 63 28 24 17 20 27 31 39 42 40 39 37 27 47 64 65 50 51 67 93 96 91 86 81 81 76 78 79 80 84 91 82 72 54 20 30 58 82 48 60 76 71 84 79 72 69
62 71 50 40 27 19 15 27 28 38 42 41 36 40 34 34 63 54 62 50 70 66 81 96 95 88 81 80 78 76 78 81 83 92 82 74 44 20 27 45 70 75 73 74 64 81 76 68 52
67 61 53 45 35 37 28 35 38 34 38 39 38 33 38 48 51 56 55 40 55 94 98 96 100 86 82 78 80 80 78 81 83 80 82 72 32 27 32 59 67 84 84 73 78 73 69 53 24
64 55 35 33 36 36 31 41 44 33 31 31 33 31 33 37 43 44 41 40 33 72 93 99 100 96 88 83 79 78 78 81 83 72 83 69 35 45 50 67 68 81 82 78 78 69 56 29 30
37 40 27 28 30 33 28 32 33 28 26 27 29 29 29 35 31 38 32 30 28 32 76 90 94 100 97 90 78 72 78 81 81 68 79 67 69 61 78 68 68 78 75 78 68 58 44 30 33
38 32 40 32 31 34 29 35 28 31 29 26 34 32 28 34 30 21 21 22 24 24 34 79 94 99 98 97 86 79 81 81 79 66 73 65 74 66 82 74 69 76 71 70 58 49 32 36 33
53 45 47 48 38 35 35 36 38 36 33 41 41 30 30 36 29 28 29 29 25 26 26 41 70 96 100 98 96 86 82 80 75 66 69 65 79 78 81 83 74 63 60 57 50 39 39 35 33
71 55 46 44 47 38 42 40 41 47 47 43 41 39 35 38 44 46 28 21 23 20 24 23 42 77 96 99 96 95 87 81 76 69 71 69 82 85 79 77 75 52 46 48 44 44 39 38 36
59 54 45 42 43 41 42 47 49 50 44 42 41 42 46 51 54 56 46 45 41 24 20 20 22 39 80 99 97 95 92 88 80 80 77 86 86 90 84 84 79 54 42 46 42 45 46 43 37
64 50 50 49 50 52 51 49 50 53 48 38 41 46 51 54 57 63 62 53 49 27 21 16 17 23 49 83 98 95 96 91 85 84 92 100 94 95 97 81 85 72 47 49 46 46 52 80 73
66 62 60 57 59 59 53 53 53 52 49 49 53 58 62 62 63 65 68 47 34 31 26 21 20 32 21 47 99 97 95 92 89 83 93 100 95 90 96 85 88 94 63 90 71 66 72 56 60
72 60 63 64 65 64 62 61 57 54 52 54 58 60 60 62 62 64 67 60 45 33 28 23 20 18 18 29 68 97 99 95 87 84 83 94 92 88 100 94 94 91 73 85 84 82 73 66 73
69 68 64 60 58 58 61 53 61 50 57 59 56 57 62 67 68 68 71 71 48 41 32 28 30 26 20 23 49 91 92 94 94 83 84 93 92 94 98 75 95 92 78 72 76 78 77 78 77
69 72 52 48 54 50 61 58 65 47 51 52 50 56 61 66 71 73 74 77 64 48 41 34 31 36 31 36 32 86 91 93 96 84 89 94 96 89 91 88 94 86 56 64 71 74 79 79 79
66 59 72 45 51 55 58 50 40 43 42 46 50 53 58 62 67 71 75 80 78 53 49 36 34 31 55 48 41 59 80 96 93 88 83 93 93 89 86 95 85 89 52 55 70 73 70 77 72
59 71 72 58 45 51 49 51 36 40 45 47 51 58 64 70 74 74 76 78 82 60 50 41 34 37 34 40 59 62 65 89 90 88 85 93 96 92 86 95 94 62 55 63 60 65 56 61 68
71 83 59 69 53 47 51 47 32 35 45 48 57 65 71 78 83 85 85 85 89 81 57 50 40 35 53 39 41 62 76 90 96 92 92 95 96 90 88 99 97 73 55 41 51 51 45 61 75
64 65 65 44 35 52 46 37 33 37 43 51 56 67 79 86 94 98 96 94 94 93 81 50 43 37 40 48 51 45 74 80 78 98 100 99 95 86 100 100 91 86 64 46 36 40 42 53 76
49 49 44 38 36 42 33 40 35 43 48 51 56 76 88 91 98 100 97 95 98 94 68 74 45 41 46 41 47 60 58 64 75 63 96 96 89 86 99 98 81 79 82 74 49 42 45 61 68
44 49 48 49 46 41 50 40 50 39 48 50 61 82 89 98 100 98 98 93 94 97 84 79 52 45 43 43 47 76 58 93 91 98 100 98 100 82 84 90 91 81 86 79 64 46 42 61 61
51 60 57 57 53 48 47 45 52 47 54 50 65 85 90 99 99 100 98 94 96 97 91 80 69 51 46 51 66 76 62 98 100 100 98 98 98 88 84 81 94 88 87 92 77 56 50 56 60
54 81 69 60 56 56 57 67 52 51 72 63 70 92 93 100 100 99 100 99 99 97 98 97 99 96 94 93 81 56 81 91 99 99 100 100 100 99 91 79 85 98 90 92 96 62 59 58 71
55 66 62 62 58 71 56 66 55 72 82 67 80 97 96 100 100 100 100 99 99 95 95 99 93 98 94 81 83 75 69 87 90 96 99 100 100 99 90 82 89 96 91 87 93 78 60 61 61
55 62 70 74 82 63 54 59 69 57 62 68 93 96 98 100 100 100 100 99 99 90 93 97 95 97 84 84 81 77 83 81 93 99 96 98 99 98 95 91 99 100 99 92 97 93 79 77 65
64 73 81 77 66 58 50 59 60 49 54 60 81 91 94 96 100 98 99 99 100 100 96 85 90 85 72 89 98 95 88 98 87 95 86 98 100 100 99 92 98 99 96 96 100 99 76 88 77
62 76 70 82 75 58 50 44 44 45 50 54 68 82 87 94 94 98 100 100 100 100 100 100 99 95 85 91 96 97 86 93 78 73 80 92 99 100 100 100 100 94 93 100 100 91 82 70 73
56 58 80 74 77 59 44 54 51 51 58 57 60 71 76 84 79 91 98 99 100 100 97 100 100 99 98 92 93 91 86 83 78 81 86 99 100 100 99 100 98 99 100 99 92 96 84 75 80
46 59 66 82 64 71 54 47 46 56 61 62 60 69 76 81 82 78 92 100 100 100 98 100 96 100 100 99 100 99 98 94 95 83 85 90 96 100 100 98 100 99 94 94 93 92 86 96 88
45 51 71 74 81 67 71 56 52 59 58 63 63 69 75 79 80 79 82 94 100 100 99 100 100 100 100 100 100 100 100 100 97 98 99 90 99 100 99 99 100 99 100 96 97 99 100 98 92
Wind_Speed
10 10 14 9 5 4 7 6 1 5 4 2 2 7 7 5 4 1 4 11 10 11 6 15 21 22 24 22 21 20 19 17 16 15 13 11 10 13 15 16 15 15 18 19 18 17 17 16 15
14 13 9 4 4 7 7 6 8 3 2 4 4 9 6 7 2 0 2 11 9 7 5 13 21 23 26 24 23 21 20 18 17 15 14 12 11 14 17 17 17 15 22 18 19 17 16 15 14
17 15 7 3 3 7 2 2 2 3 2 2 2 3 5 1 1 1 5 11 10 7 6 13 19 24 25 26 25 24 21 20 19 16 14 12 12 15 18 18 18 19 20 18 17 15 15 14 12
10 5 2 4 5 1 2 3 3 2 3 1 3 6 4 4 1 2 5 7 10 6 2 7 20 24 26 27 27 25 23 21 19 17 15 13 14 16 17 23 20 20 19 18 17 16 14 13 13
7 3 3 3 2 2 4 1 1 1 1 1 4 5 5 3 5 8 7 9 7 5 4 6 14 24 26 27 28 27 25 23 22 17 17 15 16 18 20 22 23 21 19 17 16 15 14 13 13
2 1 3 4 3 2 4 4 5 5 5 5 7 10 9 8 11 12 12 13 13 6 7 10 11 23 26 28 29 28 27 25 23 19 18 17 18 20 20 22 22 20 19 17 16 15 14 14 13
1 2 3 1 2 3 1 2 5 5 7 9 5 8 8 10 14 20 22 22 20 16 10 12 13 16 26 28 29 29 28 27 24 21 20 20 21 22 22 22 21 20 19 17 17 16 16 14 13
1 1 4 3 3 0 3 0 3 9 9 6 5 6 7 7 8 17 20 23 22 22 17 14 16 20 23 29 31 30 30 29 25 22 23 23 23 23 22 22 20 21 18 18 18 18 16 14 14
1 2 3 4 4 4 2 3 5 9 15 16 17 19 22 24 23 26 27 28 26 25 24 19 18 19 24 29 30 32 32 31 27 24 25 25 25 25 24 23 21 20 19 21 20 18 16 15 14
2 3 1 2 2 3 6 9 11 9 16 24 22 23 22 23 22 21 24 23 23 27 27 24 21 20 21 24 30 32 34 32 30 28 30 27 27 26 24 25 22 19 21 22 21 18 16 16 15
1 2 1 4 9 8 11 12 11 12 13 14 17 20 19 21 25 23 24 26 26 27 29 32 27 25 26 29 31 32 36 36 34 31 31 28 27 29 26 26 25 21 23 25 22 20 18 15 14
4 5 7 4 6 7 13 12 14 16 23 22 21 20 21 23 24 24 24 26 27 30 30 31 32 25 27 25 31 34 36 38 38 36 32 32 32 34 29 27 25 22 25 20 22 20 19 18 16
7 6 7 12 16 18 18 18 14 18 16 15 19 21 22 24 25 27 25 26 27 28 31 32 33 33 30 29 29 38 37 40 40 40 38 37 36 35 28 27 24 23 24 23 21 19 19 18 16
3 11 16 16 17 11 9 7 2 4 5 16 19 20 20 20 24 28 27 26 29 29 29 31 32 32 32 31 30 36 41 40 41 42 41 39 40 38 33 31 26 25 25 24 22 20 19 17 16
7 13 13 5 2 3 2 7 9 10 12 18 20 21 23 23 22 26 28 27 29 31 29 30 33 31 33 32 32 35 45 42 43 44 41 42 43 39 39 31 28 26 28 26 23 21 19 18 17
7 6 4 4 4 1 3 6 5 9 17 20 21 25 27 27 27 28 28 27 29 32 31 30 32 35 31 32 32 37 36 47 44 45 43 43 46 42 39 35 31 27 30 30 26 25 24 20 20
3 4 6 8 8 1 4 13 8 13 15 19 21 25 29 30 30 31 30 28 28 31 33 30 33 33 37 36 30 35 36 43 45 44 47 46 47 43 41 40 32 34 31 29 28 27 27 25 22
5 7 8 8 2 11 13 13 14 11 11 17 23 26 28 32 35 34 35 31 27 27 34 32 33 34 32 36 33 33 33 38 46 45 47 47 49 45 41 42 38 36 35 34 31 30 30 25 20
6 6 8 14 9 9 8 15 16 9 16 19 27 28 30 33 40 40 36 30 28 28 30 37 35 35 34 33 33 38 40 37 44 46 46 47 50 48 45 44 41 38 37 38 37 33 34 30 20
6 10 12 9 6 10 11 13 8 5 13 20 25 28 30 35 42 38 25 23 23 27 31 34 39 38 34 37 35 33 40 42 40 43 49 52 50 50 48 46 43 41 39 36 38 38 35 30 27
6 10 10 9 11 5 8 6 7 12 15 24 30 31 34 35 39 38 22 14 11 19 24 29 36 41 37 36 38 30 36 36 40 46 52 53 50 49 48 48 46 44 42 42 42 42 40 35 33
11 7 6 6 7 1 6 1 3 16 18 21 32 35 36 37 40 38 14 10 9 11 17 22 29 38 39 36 38 35 43 39 41 46 48 49 51 48 48 46 47 47 45 45 42 44 43 39 35
6 7 9 7 6 5 3 3 4 14 21 24 28 35 37 38 38 37 31 13 7 10 13 18 22 27 29 32 36 39 40 41 35 41 47 47 48 48 46 48 47 49 48 47 42 44 46 44 34
7 3 4 3 2 3 2 2 3 10 15 20 25 33 35 39 40 38 28 14 4 7 10 16 18 21 26 30 34 40 44 40 42 41 41 45 48 48 48 48 46 49 49 48 43 44 45 46 42
6 2 2 3 3 2 2 3 2 8 12 15 19 31 37 39 39 40 33 29 21 5 6 7 13 19 22 29 31 37 41 40 38 38 37 43 50 47 50 49 48 46 48 48 44 38 45 43 41
3 3 3 2 1 2 1 1 1 3 9 15 20 27 33 39 39 37 35 33 26 18 8 9 8 8 29 23 26 36 41 42 31 34 32 45 48 50 48 50 47 43 45 47 43 36 35 40 36
1 1 2 2 2 4 2 2 4 3 9 15 20 23 28 33 36 34 37 34 29 22 9 11 11 14 26 25 24 23 20 28 33 25 28 33 46 47 46 51 48 46 46 48 40 38 42 36 37
3 2 2 1 3 2 2 3 0 5 10 12 14 19 23 28 32 33 32 34 32 24 18 20 19 9 15 23 21 22 24 24 20 16 15 27 34 36 36 41 41 47 35 27 31 39 46 40 42
1 1 2 1 4 3 3 2 1 3 6 9 12 16 19 21 26 30 29 31 30 29 21 25 25 22 14 21 21 21 20 20 17 11 12 16 17 31 31 33 35 35 36 29 29 42 44 41 38
1 1 0 2 1 2 4 2 1 1 5 6 10 12 15 17 20 23 26 26 30 29 29 23 28 29 29 18 17 14 12 10 8 12 11 11 13 17 21 29 32 34 27 26 29 35 34 35 35
Wind_Direction
164 156 150 145 197 238 214 210 250 169 197 183 295 222 222 276 217 25 353 349 341 346 255 212 203 202 198 199 197 196 196 195 196 191 186 182 176 168 158 149 135 144 148 139 146 145 145 141 135
160 146 141 178 238 216 198 203 208 154 35 317 257 245 248 252 232 39 100 358 333 359 292 203 209 205 203 202 202 202 200 200 201 193 192 191 185 178 168 155 149 152 147 154 159 156 150 141 138
155 144 170 199 230 244 227 183 193 202 348 341 251 252 256 188 196 116 353 10 348 338 4 183 211 207 209 205 205 205 205 203 204 197 200 198 192 181 172 162 156 156 160 164 164 156 149 143 139
140 137 94 231 220 321 350 92 91 187 195 326 324 256 253 220 135 18 343 357 6 338 1 198 204 212 212 210 207 207 207 207 206 205 202 199 188 178 173 160 168 168 169 171 163 158 152 145 142
120 145 180 210 176 256 248 288 251 283 274 228 324 249 263 265 264 284 298 328 348 341 256 229 224 211 215 214 209 210 211 209 207 209 204 197 188 173 166 167 173 174 176 173 169 163 157 149 145
96 226 208 221 180 201 238 264 272 272 289 297 291 282 261 253 267 269 274 290 301 301 264 229 230 223 214 217 214 214 213 211 209 210 204 198 188 178 174 177 179 180 181 179 176 169 165 157 151
68 232 151 194 252 247 194 325 277 317 290 299 286 273 261 273 255 269 271 274 284 283 268 237 231 232 221 216 218 215 212 212 211 210 202 197 192 186 184 187 187 187 187 186 179 174 171 163 160
110 249 158 181 191 125 95 49 317 304 299 284 258 253 269 264 281 261 266 272 267 278 268 253 237 233 226 220 217 217 215 214 212 208 201 198 195 193 190 194 196 195 192 187 180 171 169 168 167
140 181 206 176 189 116 146 284 297 293 279 276 251 260 272 281 283 288 278 273 275 262 269 257 251 236 228 226 218 216 215 216 210 207 202 199 198 199 196 198 197 198 195 186 181 176 173 171 170
242 237 179 135 189 274 275 279 300 282 287 273 275 277 285 284 284 280 282 280 273 266 260 261 251 250 240 230 222 215 213 213 210 205 201 198 199 194 192 199 201 201 194 187 185 183 180 177 176
204 282 146 250 252 278 279 282 274 262 274 287 305 298 294 286 282 276 271 269 268 266 258 256 252 244 238 234 225 217 213 209 209 206 201 193 196 196 190 198 199 205 197 191 189 188 187 180 180
266 257 247 277 265 274 265 287 274 258 268 291 295 294 292 289 283 279 271 273 266 259 254 247 249 246 239 238 231 218 214 210 209 207 201 196 199 200 195 197 196 196 197 195 192 192 193 194 192
258 273 264 267 276 274 277 265 263 274 279 286 300 298 292 285 280 279 276 274 267 254 252 250 244 241 238 235 235 217 217 214 211 210 208 205 206 203 195 195 194 195 196 195 197 196 197 196 193
309 287 290 286 278 261 258 280 278 257 273 300 307 303 301 294 284 282 276 269 266 261 247 246 243 239 233 232 227 228 218 217 214 213 212 209 210 206 199 203 195 197 199 198 198 198 197 196 197
293 293 298 254 235 279 246 253 224 295 299 303 314 311 310 302 301 287 280 271 261 257 255 241 240 234 229 228 225 221 222 219 216 214 211 212 216 213 210 205 201 201 203 200 199 199 200 200 200
261 265 294 66 344 67 268 265 261 330 329 318 320 320 315 309 301 295 285 275 262 252 246 239 235 232 224 223 220 220 222 218 217 218 215 215 220 217 215 210 206 204 205 203 200 200 203 204 206
188 285 290 317 324 330 267 293 298 316 340 333 332 324 316 311 306 299 290 277 264 251 238 234 232 230 223 224 221 215 216 218 218 217 220 217 220 220 219 218 211 215 207 206 204 205 207 209 210
306 295 281 281 225 309 289 284 307 314 339 335 339 328 322 315 310 301 289 277 262 246 239 228 230 229 222 223 226 221 211 214 217 218 221 221 222 221 220 220 220 218 214 211 209 209 210 212 210
262 263 270 278 297 283 279 303 299 330 340 338 337 332 324 318 317 312 290 275 259 242 232 224 218 218 217 218 219 221 219 212 212 216 222 221 223 223 217 218 223 224 220 218 216 213 214 215 208
287 287 283 292 280 296 294 298 315 41 346 344 341 335 329 327 330 335 309 288 248 234 229 222 213 210 215 219 222 224 216 219 220 220 222 223 224 224 217 222 225 226 221 218 218 215 213 216 212
289 304 302 291 313 271 293 248 150 6 358 349 351 343 340 338 333 339 325 305 248 227 221 220 215 214 219 221 219 223 218 215 217 213 216 221 223 225 223 223 227 227 225 224 223 220 218 213 216
304 7 312 293 309 328 349 268 138 359 354 354 356 347 340 340 345 349 334 293 277 253 232 224 223 223 226 223 220 216 213 206 207 209 208 215 219 226 228 225 227 230 229 226 226 225 222 220 220
318 279 281 294 271 283 170 248 89 4 353 351 354 343 340 347 351 358 16 12 302 256 233 223 221 222 221 220 217 215 214 210 206 203 215 220 219 225 227 229 228 230 231 229 229 227 223 224 221
312 255 212 224 253 231 41 240 63 11 348 344 349 344 342 350 353 7 20 22 330 286 251 235 220 220 219 217 212 212 211 212 214 213 209 217 223 228 227 231 230 229 232 234 232 230 226 226 227
358 300 167 169 215 58 26 249 54 5 4 5 349 340 346 353 359 9 16 19 30 282 224 227 218 218 219 223 209 210 210 209 208 211 217 223 226 230 231 231 229 232 233 236 233 229 233 227 228
348 337 348 2 355 20 230 355 78 28 19 14 6 347 354 358 5 14 21 26 32 58 194 283 216 229 230 212 207 207 204 195 206 213 221 220 220 224 233 229 227 233 234 240 231 227 229 234 232
31 44 3 308 226 268 351 175 202 242 12 14 11 356 353 358 9 11 23 28 34 57 98 99 139 194 185 205 201 190 196 194 199 202 215 215 219 227 222 223 225 232 237 236 229 216 217 225 239
351 13 246 237 290 283 198 270 292 344 357 0 8 0 356 358 11 18 24 29 40 57 70 79 72 137 176 187 185 191 198 201 195 192 207 218 213 218 228 225 228 228 224 228 239 224 222 221 233
108 89 81 270 311 310 304 105 131 350 352 352 359 358 355 358 1 20 25 34 36 47 72 72 71 77 117 159 174 183 179 184 186 188 198 202 228 230 230 234 229 231 249 235 239 223 215 225 235
331 65 141 278 151 339 314 310 133 34 345 340 349 350 357 4 1 11 21 26 47 51 55 66 74 77 86 121 136 143 160 181 188 208 210 215 223 231 249 225 231 219 218 232 225 220 220 227 233